Goldsboro, NC

10:32 PM EDT on October 16, 2017 (GMT -0400)
Seymour Johnson Air Force Base

Weather History for KGSB - December, 2011

Change the Weather History Date:

Tuesday, December 6, 2011

  Actual Average Record
Temperature  
Mean Temperature 66 °F -  
Max Temperature 75 °F 57 °F 82 °F (1998)
Min Temperature 58 °F 38 °F 24 °F (2002)
Cooling Degree Days 2    
Growing Degree Days 16 (Base 50)    
Moisture  
Dew Point 59 °F    
Average Humidity 83    
Maximum Humidity 100    
Minimum Humidity 48    
Precipitation  
Precipitation 0.00 in - - ()
Sea Level Pressure  
Sea Level Pressure 30.11 in    
Wind  
Wind Speed 3 mph (South)    
Max Wind Speed 14 mph    
Max Gust Speed -    
Visibility 8 miles    
Events      
Averages and records for this station are not official NWS values.
T = Trace of Precipitation, MM = Missing Value Source: NWS Daily Summary

Daily Weather History Graph

Daily Weather History Graph

Search for Another Location

Airport or City:

Trip Planner

Search our weather history database for the weather conditions in past years. The results will help you decide how hot, cold, wet, or windy it might be!

Date:

Astronomy

Dec. 06, 2011 Rise Set
Actual Time 7:06 AM EST 4:59 PM EST
Civil Twilight 6:38 AM EST 5:27 PM EST
Nautical Twilight 6:06 AM EST 5:58 PM EST
Astronomical Twilight 5:35 AM EST 6:29 PM EST
Moon 2:21 PM EST (12/6) 3:27 AM EST (12/6)
Length of Visible Light 10h 48m
Length of Day
9h 52m
Waxing Gibbous, 86% of the Moon is Illuminated
Dec 6
Waxing Gibbous
Dec 10
Full
Dec 17
Last Quarter
Dec 24
New
Jan 1
First Quarter

Hourly Weather History & Observations

Time (EST) Temp. Dew Point Humidity Pressure Visibility Wind Dir Wind Speed Gust Speed Precip Events Conditions
12:55 AM 61.0 °F 60.6 °F 99% 30.17 in 10.0 mi Calm Calm - N/A   Clear
1:55 AM 61.0 °F 61.0 °F 100% 30.17 in 10.0 mi ESE 3.5 mph - N/A   Overcast
2:55 AM 59.5 °F 59.5 °F 100% 30.16 in 7.0 mi Calm Calm - N/A   Overcast
3:14 AM 59.0 °F 59.0 °F 100% 30.16 in 1.2 mi Calm Calm - N/A   Overcast
3:16 AM 59.0 °F 59.0 °F 100% 30.16 in 1.0 mi Calm Calm - N/A   Overcast
3:23 AM 59.0 °F 59.0 °F 100% 30.16 in 1.5 mi Calm Calm - N/A   Overcast
3:31 AM 59.0 °F 59.0 °F 100% 30.16 in 1.5 mi Calm Calm - N/A   Overcast
3:32 AM 59.0 °F 59.0 °F 100% 30.16 in 1.8 mi Calm Calm - N/A   Overcast
3:41 AM 59.0 °F 59.0 °F 100% 30.16 in 1.8 mi ESE 3.5 mph - N/A   Overcast
3:55 AM 58.5 °F 58.5 °F 100% 30.15 in 5.0 mi ESE 3.5 mph - N/A   Overcast
4:55 AM 60.3 °F 60.3 °F 100% 30.14 in 10.0 mi SE 3.5 mph - N/A   Overcast
5:55 AM 60.1 °F 60.1 °F 100% 30.14 in 10.0 mi ESE 4.6 mph - N/A   Overcast
6:55 AM 59.4 °F 59.4 °F 100% 30.16 in 10.0 mi Calm Calm - N/A   Overcast
7:55 AM 59.5 °F 59.5 °F 100% 30.15 in 10.0 mi Calm Calm - N/A   Overcast
8:55 AM 61.9 °F 61.5 °F 99% 30.14 in 10.0 mi SSE 6.9 mph - N/A   Overcast
9:55 AM 66.9 °F 60.8 °F 81% 30.15 in 10.0 mi Variable 6.9 mph - N/A   Partly Cloudy
10:55 AM 70.2 °F 58.1 °F 65% 30.13 in 10.0 mi South 8.1 mph - N/A   Clear
11:55 AM 72.7 °F 56.8 °F 57% 30.11 in 10.0 mi SSW 13.8 mph - N/A   Partly Cloudy
12:55 PM 73.6 °F 55.8 °F 54% 30.07 in 10.0 mi SSW 8.1 mph - N/A   Mostly Cloudy
1:55 PM 75.4 °F 54.3 °F 48% 30.06 in 10.0 mi SW 12.7 mph - N/A   Mostly Cloudy
2:55 PM 73.9 °F 55.2 °F 52% 30.05 in 10.0 mi South 10.4 mph - N/A   Mostly Cloudy
3:55 PM 72.9 °F 55.0 °F 53% 30.05 in 10.0 mi SSW 11.5 mph - N/A   Overcast
4:55 PM 71.1 °F 56.5 °F 60% 30.05 in 10.0 mi SSW 5.8 mph - N/A   Mostly Cloudy
5:55 PM 70.0 °F 57.0 °F 63% 30.04 in 10.0 mi South 5.8 mph - N/A   Overcast
6:55 PM 68.9 °F 57.4 °F 67% 30.04 in 10.0 mi South 5.8 mph - N/A   Mostly Cloudy
7:55 PM 67.3 °F 57.2 °F 70% 30.05 in 10.0 mi South 4.6 mph - N/A   Mostly Cloudy
8:55 PM 65.7 °F 58.5 °F 78% 30.04 in 10.0 mi South 3.5 mph - N/A   Clear
9:55 PM 64.6 °F 59.4 °F 83% 30.04 in 10.0 mi South 4.6 mph - N/A   Clear
10:55 PM 63.9 °F 59.7 °F 86% 30.01 in 10.0 mi South 6.9 mph - N/A   Clear
11:55 PM 63.7 °F 59.7 °F 87% 30.00 in 10.0 mi Variable 4.6 mph - N/A   Clear